Tracking 19219 objects as of 21-Jul-2018
HD Live streaming from Space Station
objects crossing your sky now

OSIRIS-3U

Track OSIRIS-3U now!
10-day predictions
OSIRIS-3U is classified as:


NORAD ID: 43027
Int'l Code: 1998-067NL
Perigee: 375.5 km
Apogee: 378.9 km
Inclination: 51.6 °
Period: 91.9 minutes
Semi major axis: 6748 km
RCS: Unknown
Launch date: November 20, 1998
Source: United States (US)
Launch site: TYURATAM MISSILE AND SPACE COMPLEX (TTMTR)
Uplink (MHz):
Downlink (MHz): 437.505
Beacon (MHz):
Mode: 9k6-38k4 GMSK
Call sign:
Status: Inactive

aabbcc
Your satellite tracking list
Your tracking list is empty




NASA's NSSDC Master Catalog

Two Line Element Set (TLE):
1 43027U 98067NL  18202.49953828  .00026319  00000-0  25579-3 0  9999
2 43027  51.6358 196.7138 0002500 321.3516  38.7300 15.66110376 37792
Source of the keplerian elements: AFSPC